Weather in Ulanovo

Russia / Kaluga Oblast     54°55′58″N   35°53′58″E
temp.,
°C
wind,
m/s
gust,
m/s
humid.,
%
clouds,
%
prec.,
mm/h
press.,
hPa
HPBL,
m
25 october, mon
mon2500:00−1nw38895 0.0 1026397
03:00−2nw38915 0.0 1028299
06:00−2wnw269281 0.0 1029207
09:00−1wnw2479100 0.0 1031246
12:00+2wsw346044 0.0 1031677
15:00+4wsw4657100 0.0 1029789
18:00+1sw387490 0.0 1029193
21:000sw412775 0.0 1028329
26 october, tue
tue2600:00−1sw413815 0.0 1028374
03:00−1sw41385100 0.0 1027393
06:000sw41384100 0.0 1026392
09:00+1sw41475100 0.0 1025446
12:00+5sw61458100 0.0 1024576
15:00+6sw51357100 0.0 1022680
18:00+3sw51467100 0.0 1022486
21:00+2sw51472100 0.0 1022467
27 october, wed
wed2700:00+2sw41374100 0.0 1022392
03:00+1sw41277100 0.0 1021332
06:00+1sw41279100 0.0 1020313
09:00+2sw51375100 0.0 1020419
12:00+5sw51463100 0.0 1018585
15:00+6sw61366100 0.0 1018695
18:00+5wsw5127950 0.6 1018604
21:00+6w4980100 0.6 1019725
28 october, thu
thu2800:00+4wsw3990100 0.0 1020280
03:00+5sw41090100 0.0 1020357
06:00+4sw41094100 0.0 1019331
09:00+5sw51288100 0.2 1018602
12:00+7wsw51290100 0.5 1018669
15:00+8wsw5129099 0.6 1017571
18:00+8w51293100 0.3 1018568
21:00+8w41195100 0.4 1018522
29 october, fri
fri2900:00+9w41092100 0.0 1019402
03:00+8w389898 0.1 1020301
06:00+8wnw2598100 0.0 1021166
09:00+8n1198100 0.2 102315
12:00+8e2398100 0.3 102591
15:00+8se1295100 0.3 102586
18:00+8sse2395100 0.0 1027103
21:00+8s2496100 0.1 1027116